Time,TemperatureF,DewpointF,PressureIn,WindDirection,WindDirectionDegrees,WindSpeedMPH,WindSpeedGustMPH,Humidity,HourlyPrecipIn,Conditions,Clouds,dailyrainin,SoftwareType,DateUTC
2013-03-15 00:02:00,35.9,25.3,30.12,WNW,300,0.0,0.0,65,0.00,,---,0.00,VWS V14.01,2013-03-15 07:02:00,
2013-03-15 00:07:00,35.6,25.0,30.11,WNW,301,0.0,0.0,65,0.00,,---,0.00,VWS V14.01,2013-03-15 07:07:00,
2013-03-15 00:12:00,35.2,25.0,30.11,WNW,300,0.0,0.0,66,0.00,,---,0.00,VWS V14.01,2013-03-15 07:12:00,
2013-03-15 00:17:00,35.1,24.5,30.11,WNW,301,0.0,0.0,65,0.00,,---,0.00,VWS V14.01,2013-03-15 07:17:00,
2013-03-15 00:22:00,34.8,25.0,30.11,WNW,301,0.0,0.0,67,0.00,,---,0.00,VWS V14.01,2013-03-15 07:22:00,
2013-03-15 00:27:00,34.4,25.0,30.11,WNW,301,0.0,0.0,68,0.00,,---,0.00,VWS V14.01,2013-03-15 07:27:00,
2013-03-15 00:33:00,34.2,25.5,30.11,WNW,301,0.0,0.0,70,0.00,,---,0.00,VWS V14.01,2013-03-15 07:33:00,
2013-03-15 00:38:00,34.1,25.4,30.11,WNW,300,0.0,0.0,70,0.00,,---,0.00,VWS V14.01,2013-03-15 07:38:00,
2013-03-15 00:43:00,33.9,25.2,30.10,WNW,301,0.0,0.0,70,0.00,,---,0.00,VWS V14.01,2013-03-15 07:43:00,
2013-03-15 00:48:00,34.3,24.9,30.10,WNW,301,0.0,0.0,68,0.00,,---,0.00,VWS V14.01,2013-03-15 07:48:00,
2013-03-15 00:53:00,34.1,24.7,30.10,WNW,301,0.0,0.0,68,0.00,,---,0.00,VWS V14.01,2013-03-15 07:53:00,
2013-03-15 00:58:00,34.0,24.9,30.10,WNW,301,0.0,0.0,69,0.00,,---,0.00,VWS V14.01,2013-03-15 07:58:00,
2013-03-15 01:03:00,33.9,24.8,30.10,WNW,301,0.0,0.0,69,0.00,,---,0.00,VWS V14.01,2013-03-15 08:03:00,
2013-03-15 01:08:00,33.7,26.3,30.10,WNW,301,0.0,0.0,74,0.00,,---,0.00,VWS V14.01,2013-03-15 08:08:00,
2013-03-15 01:14:00,33.6,25.9,30.10,WNW,301,0.0,0.0,73,0.00,,---,0.00,VWS V14.01,2013-03-15 08:14:00,
2013-03-15 01:19:00,33.6,25.9,30.10,WNW,301,0.0,0.0,73,0.00,,---,0.00,VWS V14.01,2013-03-15 08:19:00,
2013-03-15 01:24:00,33.5,25.5,30.10,WNW,301,0.0,0.0,72,0.00,,---,0.00,VWS V14.01,2013-03-15 08:24:00,
2013-03-15 01:29:00,33.3,25.6,30.09,WNW,301,0.0,0.0,73,0.00,,---,0.00,VWS V14.01,2013-03-15 08:29:00,
2013-03-15 01:34:00,33.7,25.6,30.09,WNW,301,0.0,0.0,72,0.00,,---,0.00,VWS V14.01,2013-03-15 08:34:00,
2013-03-15 01:39:00,34.1,25.4,30.09,WNW,301,0.0,0.0,70,0.00,,---,0.00,VWS V14.01,2013-03-15 08:39:00,
2013-03-15 01:44:00,33.9,24.8,30.09,WNW,300,0.0,0.0,69,0.00,,---,0.00,VWS V14.01,2013-03-15 08:44:00,
2013-03-15 01:49:00,33.7,25.3,30.09,WNW,299,0.0,0.0,71,0.00,,---,0.00,VWS V14.01,2013-03-15 08:49:00,
2013-03-15 01:54:00,33.6,25.2,30.09,WNW,299,0.0,0.0,71,0.00,,---,0.00,VWS V14.01,2013-03-15 08:54:00,
2013-03-15 01:59:00,34.2,25.5,30.09,WNW,299,0.0,0.0,70,0.00,,---,0.00,VWS V14.01,2013-03-15 08:59:00,
2013-03-15 02:04:00,34.1,24.7,30.08,WNW,300,0.0,0.0,68,0.00,,---,0.00,VWS V14.01,2013-03-15 09:04:00,
2013-03-15 02:09:00,34.1,24.3,30.09,WNW,300,0.0,0.0,67,0.00,,---,0.00,VWS V14.01,2013-03-15 09:09:00,
2013-03-15 02:15:00,34.0,24.2,30.09,WNW,300,0.0,0.0,67,0.00,,---,0.00,VWS V14.01,2013-03-15 09:15:00,
2013-03-15 02:20:00,33.5,24.4,30.09,WNW,300,0.0,0.0,69,0.00,,---,0.00,VWS V14.01,2013-03-15 09:20:00,
2013-03-15 02:25:00,33.3,23.9,30.09,WNW,300,0.0,0.0,68,0.00,,---,0.00,VWS V14.01,2013-03-15 09:25:00,
2013-03-15 02:30:00,33.3,23.9,30.09,WNW,300,0.0,0.0,68,0.00,,---,0.00,VWS V14.01,2013-03-15 09:30:00,
2013-03-15 02:35:00,33.2,24.8,30.09,WNW,299,0.0,0.0,71,0.00,,---,0.00,VWS V14.01,2013-03-15 09:35:00,
2013-03-15 02:40:00,33.1,24.0,30.08,WNW,300,0.0,0.0,69,0.00,,---,0.00,VWS V14.01,2013-03-15 09:40:00,
2013-03-15 02:45:00,32.9,23.9,30.08,WNW,300,0.0,0.0,69,0.00,,---,0.00,VWS V14.01,2013-03-15 09:45:00,
2013-03-15 02:50:00,32.7,23.7,30.08,WNW,300,0.0,0.0,69,0.00,,---,0.00,VWS V14.01,2013-03-15 09:50:00,
2013-03-15 02:56:00,32.8,23.8,30.08,WNW,299,0.0,0.0,69,0.00,,---,0.00,VWS V14.01,2013-03-15 09:56:00,
2013-03-15 03:02:00,32.9,23.5,30.08,WNW,300,0.0,0.0,68,0.00,,---,0.00,VWS V14.01,2013-03-15 10:02:00,
2013-03-15 03:07:00,33.1,23.4,30.08,WNW,300,0.0,0.0,67,0.00,,---,0.00,VWS V14.01,2013-03-15 10:07:00,
2013-03-15 03:12:00,33.0,23.6,30.07,WNW,299,0.0,0.0,68,0.00,,---,0.00,VWS V14.01,2013-03-15 10:12:00,
2013-03-15 03:17:00,32.9,23.5,30.07,WNW,300,0.0,0.0,68,0.00,,---,0.00,VWS V14.01,2013-03-15 10:17:00,
2013-03-15 03:22:00,32.7,24.0,30.07,WNW,300,0.0,0.0,70,0.00,,---,0.00,VWS V14.01,2013-03-15 10:22:00,
2013-03-15 03:27:00,32.4,24.7,30.07,WNW,300,0.0,0.0,73,0.00,,---,0.00,VWS V14.01,2013-03-15 10:27:00,
2013-03-15 03:32:00,32.2,23.9,30.06,WNW,299,0.0,0.0,71,0.00,,---,0.00,VWS V14.01,2013-03-15 10:32:00,
2013-03-15 03:38:00,32.1,24.1,30.06,WNW,300,0.0,0.0,72,0.00,,---,0.00,VWS V14.01,2013-03-15 10:38:00,
2013-03-15 03:43:00,32.1,24.1,30.06,WNW,300,0.0,0.0,72,0.00,,---,0.00,VWS V14.01,2013-03-15 10:43:00,
2013-03-15 03:48:00,32.2,24.2,30.06,WNW,300,0.0,0.0,72,0.00,,---,0.00,VWS V14.01,2013-03-15 10:48:00,
2013-03-15 03:53:00,32.0,24.0,30.06,WNW,300,0.0,0.0,72,0.00,,---,0.00,VWS V14.01,2013-03-15 10:53:00,
2013-03-15 03:58:00,31.8,23.8,30.06,WNW,300,0.0,0.0,72,0.00,,---,0.00,VWS V14.01,2013-03-15 10:58:00,
2013-03-15 04:03:00,31.7,23.7,30.06,WNW,300,0.0,0.0,72,0.00,,---,0.00,VWS V14.01,2013-03-15 11:03:00,
2013-03-15 04:08:00,31.5,23.5,30.06,WNW,299,0.0,0.0,72,0.00,,---,0.00,VWS V14.01,2013-03-15 11:08:00,
2013-03-15 04:13:00,31.9,23.6,30.06,WNW,300,0.0,0.0,71,0.00,,---,0.00,VWS V14.01,2013-03-15 11:13:00,
2013-03-15 04:18:00,32.1,23.8,30.06,WNW,300,0.0,0.0,71,0.00,,---,0.00,VWS V14.01,2013-03-15 11:18:00,
2013-03-15 04:23:00,32.0,23.7,30.06,WNW,299,0.0,0.0,71,0.00,,---,0.00,VWS V14.01,2013-03-15 11:23:00,
2013-03-15 04:28:00,32.1,23.8,30.06,WNW,299,0.0,0.0,71,0.00,,---,0.00,VWS V14.01,2013-03-15 11:28:00,
2013-03-15 04:34:00,32.2,24.9,30.05,WNW,300,0.0,0.0,74,0.00,,---,0.00,VWS V14.01,2013-03-15 11:34:00,
2013-03-15 04:39:00,32.3,25.0,30.05,WNW,299,0.0,0.0,74,0.00,,---,0.00,VWS V14.01,2013-03-15 11:39:00,
2013-03-15 04:44:00,32.4,24.4,30.05,WNW,300,0.0,0.0,72,0.00,,---,0.00,VWS V14.01,2013-03-15 11:44:00,
2013-03-15 04:49:00,32.3,24.0,30.05,WNW,300,0.0,0.0,71,0.00,,---,0.00,VWS V14.01,2013-03-15 11:49:00,
2013-03-15 04:54:00,32.3,24.0,30.05,WNW,300,0.0,0.0,71,0.00,,---,0.00,VWS V14.01,2013-03-15 11:54:00,
2013-03-15 04:59:00,32.1,25.1,30.05,WNW,299,0.0,0.0,75,0.00,,---,0.00,VWS V14.01,2013-03-15 11:59:00,
2013-03-15 05:04:00,31.8,25.1,30.05,WNW,299,0.0,0.0,76,0.00,,---,0.00,VWS V14.01,2013-03-15 12:04:00,
2013-03-15 05:09:00,31.8,24.8,30.05,WNW,300,0.0,0.0,75,0.00,,---,0.00,VWS V14.01,2013-03-15 12:09:00,
2013-03-15 05:14:00,31.8,24.5,30.05,WNW,299,0.0,0.0,74,0.00,,---,0.00,VWS V14.01,2013-03-15 12:14:00,
2013-03-15 05:19:00,31.6,25.2,30.06,WNW,300,0.0,0.0,77,0.00,,---,0.00,VWS V14.01,2013-03-15 12:19:00,
2013-03-15 05:24:00,31.6,25.9,30.06,WNW,300,0.0,0.0,79,0.00,,---,0.00,VWS V14.01,2013-03-15 12:24:00,
2013-03-15 05:29:00,31.5,26.6,30.05,WNW,300,0.0,0.0,82,0.00,,---,0.00,VWS V14.01,2013-03-15 12:29:00,
2013-03-15 05:34:00,31.5,25.8,30.06,WNW,300,0.0,0.0,79,0.00,,---,0.00,VWS V14.01,2013-03-15 12:34:00,
2013-03-15 05:39:00,31.4,25.0,30.05,WNW,299,0.0,0.0,77,0.00,,---,0.00,VWS V14.01,2013-03-15 12:39:00,
2013-03-15 05:44:00,31.8,25.4,30.05,WNW,299,0.0,0.0,77,0.00,,---,0.00,VWS V14.01,2013-03-15 12:44:00,
2013-03-15 05:50:00,32.0,27.7,30.05,WNW,300,0.0,0.0,84,0.00,,---,0.00,VWS V14.01,2013-03-15 12:50:00,
2013-03-15 05:55:00,32.0,27.4,30.05,WNW,300,0.0,0.0,83,0.00,,---,0.00,VWS V14.01,2013-03-15 12:55:00,
2013-03-15 06:00:00,31.9,26.7,30.05,WNW,299,0.0,0.0,81,0.00,,---,0.00,VWS V14.01,2013-03-15 13:00:00,
2013-03-15 06:05:00,31.7,26.2,30.05,WNW,300,0.0,0.0,80,0.00,,---,0.00,VWS V14.01,2013-03-15 13:05:00,
2013-03-15 06:10:00,31.8,26.9,30.05,WNW,300,0.0,0.0,82,0.00,,---,0.00,VWS V14.01,2013-03-15 13:10:00,
2013-03-15 06:15:00,31.8,26.6,30.05,WNW,300,0.0,0.0,81,0.00,,---,0.00,VWS V14.01,2013-03-15 13:15:00,
2013-03-15 06:20:00,31.6,26.1,30.06,WNW,300,0.0,0.0,80,0.00,,---,0.00,VWS V14.01,2013-03-15 13:20:00,
2013-03-15 06:25:00,31.6,26.5,30.06,WNW,300,0.0,0.0,81,0.00,,---,0.00,VWS V14.01,2013-03-15 13:25:00,
2013-03-15 06:30:00,31.3,26.2,30.05,WNW,300,0.0,0.0,81,0.00,,---,0.00,VWS V14.01,2013-03-15 13:30:00,
2013-03-15 06:35:00,31.2,26.1,30.05,WNW,290,0.0,0.0,81,0.00,,---,0.00,VWS V14.01,2013-03-15 13:35:00,
2013-03-15 06:40:00,31.3,25.6,30.05,WNW,285,0.0,0.0,79,0.00,,---,0.00,VWS V14.01,2013-03-15 13:40:00,
2013-03-15 06:45:00,31.3,25.6,30.05,SW,231,0.0,0.0,79,0.00,,---,0.00,VWS V14.01,2013-03-15 13:45:00,
2013-03-15 06:51:00,31.6,25.9,30.05,SW,231,0.0,0.0,79,0.00,,---,0.00,VWS V14.01,2013-03-15 13:51:00,
2013-03-15 06:57:00,32.0,26.2,30.05,SW,231,0.0,0.0,79,0.00,,---,0.00,VWS V14.01,2013-03-15 13:57:00,
2013-03-15 07:02:00,32.0,26.2,30.06,SW,231,0.0,0.0,79,0.00,,---,0.00,VWS V14.01,2013-03-15 14:02:00,
2013-03-15 07:07:00,31.8,26.0,30.06,SW,230,0.0,0.0,79,0.00,,---,0.00,VWS V14.01,2013-03-15 14:07:00,
2013-03-15 07:12:00,31.6,26.1,30.06,SW,231,0.0,0.0,80,0.00,,---,0.00,VWS V14.01,2013-03-15 14:12:00,
2013-03-15 07:17:00,31.5,26.0,30.06,SW,231,0.0,1.0,80,0.00,,---,0.00,VWS V14.01,2013-03-15 14:17:00,
2013-03-15 07:22:00,31.7,26.2,30.06,SW,231,0.0,1.0,80,0.00,,---,0.00,VWS V14.01,2013-03-15 14:22:00,
2013-03-15 07:27:00,32.3,26.5,30.06,SW,231,0.0,0.0,79,0.00,,---,0.00,VWS V14.01,2013-03-15 14:27:00,
2013-03-15 07:32:00,32.6,26.8,30.06,SW,231,0.0,0.0,79,0.00,,---,0.00,VWS V14.01,2013-03-15 14:32:00,
2013-03-15 07:37:00,33.2,27.1,30.06,SW,231,0.0,0.0,78,0.00,,---,0.00,VWS V14.01,2013-03-15 14:37:00,
2013-03-15 07:43:00,34.3,27.5,30.06,SW,231,0.0,0.0,76,0.00,,---,0.00,VWS V14.01,2013-03-15 14:43:00,
2013-03-15 07:48:00,35.1,28.0,30.06,SW,231,1.0,1.0,75,0.00,,---,0.00,VWS V14.01,2013-03-15 14:48:00,
2013-03-15 07:53:00,35.5,28.0,30.06,SW,231,0.0,0.0,74,0.00,,---,0.00,VWS V14.01,2013-03-15 14:53:00,
2013-03-15 07:58:00,36.1,28.6,30.06,SW,231,0.0,0.0,74,0.00,,---,0.00,VWS V14.01,2013-03-15 14:58:00,
2013-03-15 08:03:00,36.4,28.9,30.07,SW,230,0.0,0.0,74,0.00,,---,0.00,VWS V14.01,2013-03-15 15:03:00,
2013-03-15 08:08:00,36.4,28.9,30.07,SW,231,0.0,0.0,74,0.00,,---,0.00,VWS V14.01,2013-03-15 15:08:00,
2013-03-15 08:13:00,36.5,29.3,30.07,SW,230,0.0,0.0,75,0.00,,---,0.00,VWS V14.01,2013-03-15 15:13:00,
2013-03-15 08:18:00,36.6,29.8,30.07,SW,231,0.0,0.0,76,0.00,,---,0.00,VWS V14.01,2013-03-15 15:18:00,
2013-03-15 08:23:00,36.7,29.9,30.07,SW,230,0.0,0.0,76,0.00,,---,0.00,VWS V14.01,2013-03-15 15:23:00,
2013-03-15 08:29:00,36.8,30.0,30.07,SW,230,0.0,0.0,76,0.00,,---,0.00,VWS V14.01,2013-03-15 15:29:00,
2013-03-15 08:34:00,36.9,30.0,30.07,SW,231,0.0,0.0,76,0.00,,---,0.00,VWS V14.01,2013-03-15 15:34:00,
2013-03-15 08:39:00,37.1,30.6,30.07,SW,231,0.0,0.0,77,0.00,,---,0.00,VWS V14.01,2013-03-15 15:39:00,
2013-03-15 08:44:00,37.4,31.2,30.08,SW,231,0.0,0.0,78,0.00,,---,0.00,VWS V14.01,2013-03-15 15:44:00,
2013-03-15 08:49:00,37.9,31.7,30.08,SW,230,0.0,0.0,78,0.00,,---,0.00,VWS V14.01,2013-03-15 15:49:00,
2013-03-15 08:54:00,38.7,32.4,30.08,SW,230,0.0,0.0,78,0.00,,---,0.00,VWS V14.01,2013-03-15 15:54:00,
2013-03-15 08:59:00,40.3,33.7,30.08,SW,231,0.0,0.0,77,0.00,,---,0.00,VWS V14.01,2013-03-15 15:59:00,
2013-03-15 09:04:00,41.8,34.5,30.08,SW,230,0.0,0.0,75,0.00,,---,0.00,VWS V14.01,2013-03-15 16:04:00,
2013-03-15 09:10:00,43.1,35.4,30.08,SW,231,0.0,0.0,74,0.00,,---,0.00,VWS V14.01,2013-03-15 16:10:00,
2013-03-15 09:15:00,44.2,33.6,30.08,SW,231,0.0,0.0,66,0.00,,---,0.00,VWS V14.01,2013-03-15 16:15:00,
2013-03-15 09:20:00,45.3,33.5,30.07,SW,231,0.0,0.0,63,0.00,,---,0.00,VWS V14.01,2013-03-15 16:20:00,
2013-03-15 09:25:00,47.1,35.2,30.07,NNW,338,0.0,0.0,63,0.00,,---,0.00,VWS V14.01,2013-03-15 16:25:00,
2013-03-15 09:30:00,48.8,35.1,30.07,NNW,342,0.0,0.0,59,0.00,,---,0.00,VWS V14.01,2013-03-15 16:30:00,
2013-03-15 09:35:00,50.7,36.5,30.07,NNW,342,0.0,0.0,58,0.00,,---,0.00,VWS V14.01,2013-03-15 16:35:00,
2013-03-15 09:40:00,52.3,35.7,30.07,NW,305,0.0,0.0,53,0.00,,---,0.00,VWS V14.01,2013-03-15 16:40:00,
2013-03-15 09:45:00,53.8,33.5,30.07,NW,304,0.0,0.0,46,0.00,,---,0.00,VWS V14.01,2013-03-15 16:45:00,
2013-03-15 09:50:00,54.8,33.9,30.07,NW,305,0.0,0.0,45,0.00,,---,0.00,VWS V14.01,2013-03-15 16:50:00,
2013-03-15 09:55:00,55.6,33.5,30.07,NW,305,0.0,0.0,43,0.00,,---,0.00,VWS V14.01,2013-03-15 16:55:00,
2013-03-15 10:00:00,56.3,33.5,30.07,NW,305,0.0,0.0,42,0.00,,---,0.00,VWS V14.01,2013-03-15 17:00:00,
2013-03-15 10:06:00,56.8,32.1,30.07,NW,307,0.0,0.0,39,0.00,,---,0.00,VWS V14.01,2013-03-15 17:06:00,
2013-03-15 10:11:00,57.3,31.3,30.07,NW,326,1.0,2.0,37,0.00,,---,0.00,VWS V14.01,2013-03-15 17:11:00,
2013-03-15 10:16:00,57.8,31.7,30.06,NW,311,0.0,2.0,37,0.00,,---,0.00,VWS V14.01,2013-03-15 17:16:00,
2013-03-15 10:21:00,58.5,30.2,30.06,NW,319,1.0,2.0,34,0.00,,---,0.00,VWS V14.01,2013-03-15 17:21:00,
2013-03-15 10:26:00,59.4,30.3,30.06,NNW,329,0.0,3.0,33,0.00,,---,0.00,VWS V14.01,2013-03-15 17:26:00,
2013-03-15 10:31:00,60.3,30.3,30.06,NW,308,1.0,2.0,32,0.00,,---,0.00,VWS V14.01,2013-03-15 17:31:00,
2013-03-15 10:36:00,61.1,32.5,30.05,South,173,0.0,0.0,34,0.00,,---,0.00,VWS V14.01,2013-03-15 17:36:00,
2013-03-15 10:41:00,61.5,31.4,30.06,WNW,288,1.0,1.0,32,0.00,,---,0.00,VWS V14.01,2013-03-15 17:41:00,
2013-03-15 10:46:00,60.9,30.1,30.05,NW,322,0.0,0.0,31,0.00,,---,0.00,VWS V14.01,2013-03-15 17:46:00,
2013-03-15 10:51:00,60.7,29.9,30.05,WNW,298,0.0,1.0,31,0.00,,---,0.00,VWS V14.01,2013-03-15 17:51:00,
2013-03-15 10:56:00,60.7,29.1,30.05,NW,325,0.0,0.0,30,0.00,,---,0.00,VWS V14.01,2013-03-15 17:56:00,
2013-03-15 11:02:00,60.7,29.1,30.05,NW,305,0.0,0.0,30,0.00,,---,0.00,VWS V14.01,2013-03-15 18:02:00,
2013-03-15 11:07:00,60.5,28.1,30.05,WNW,293,1.0,4.0,29,0.00,,---,0.00,VWS V14.01,2013-03-15 18:07:00,
2013-03-15 11:12:00,60.8,30.0,30.05,WNW,298,0.0,1.0,31,0.00,,---,0.00,VWS V14.01,2013-03-15 18:12:00,
2013-03-15 11:17:00,62.1,29.5,30.05,NW,309,2.0,2.0,29,0.00,,---,0.00,VWS V14.01,2013-03-15 18:17:00,
2013-03-15 11:22:00,62.9,31.0,30.05,WNW,301,3.0,3.0,30,0.00,,---,0.00,VWS V14.01,2013-03-15 18:22:00,
2013-03-15 11:28:00,63.1,30.4,30.05,WNW,297,0.0,0.0,29,0.00,,---,0.00,VWS V14.01,2013-03-15 18:28:00,
2013-03-15 11:33:00,63.5,28.0,30.05,WNW,294,2.0,2.0,26,0.00,,---,0.00,VWS V14.01,2013-03-15 18:33:00,
2013-03-15 11:38:00,63.3,27.9,30.04,NE,40,0.0,0.0,26,0.00,,---,0.00,VWS V14.01,2013-03-15 18:38:00,
2013-03-15 11:43:00,63.5,29.0,30.04,ENE,70,0.0,0.0,27,0.00,,---,0.00,VWS V14.01,2013-03-15 18:43:00,
2013-03-15 11:48:00,63.8,26.3,30.04,NW,316,1.0,3.0,24,0.00,,---,0.00,VWS V14.01,2013-03-15 18:48:00,
2013-03-15 11:53:00,63.7,26.3,30.04,NW,313,2.0,3.0,24,0.00,,---,0.00,VWS V14.01,2013-03-15 18:53:00,
2013-03-15 11:58:00,64.0,26.5,30.04,North,6,1.0,2.0,24,0.00,,---,0.00,VWS V14.01,2013-03-15 18:58:00,
2013-03-15 12:03:00,64.5,23.7,30.04,North,8,0.0,0.0,21,0.00,,---,0.00,VWS V14.01,2013-03-15 19:03:00,
2013-03-15 12:08:00,65.6,23.5,30.04,SSW,195,0.0,0.0,20,0.00,,---,0.00,VWS V14.01,2013-03-15 19:08:00,
2013-03-15 12:13:00,66.7,20.5,30.04,WNW,297,1.0,2.0,17,0.00,,---,0.00,VWS V14.01,2013-03-15 19:13:00,
2013-03-15 12:19:00,67.3,21.0,30.03,NNW,333,2.0,3.0,17,0.00,,---,0.00,VWS V14.01,2013-03-15 19:19:00,
2013-03-15 12:24:00,67.9,22.9,30.03,NW,311,0.0,0.0,18,0.00,,---,0.00,VWS V14.01,2013-03-15 19:24:00,
2013-03-15 12:29:00,68.2,18.8,30.03,West,263,1.0,2.0,15,0.00,,---,0.00,VWS V14.01,2013-03-15 19:29:00,
2013-03-15 12:34:00,67.7,19.9,30.03,ENE,72,1.0,3.0,16,0.00,,---,0.00,VWS V14.01,2013-03-15 19:34:00,
2013-03-15 12:39:00,67.8,20.0,30.02,West,260,0.0,2.0,16,0.00,,---,0.00,VWS V14.01,2013-03-15 19:39:00,
2013-03-15 12:44:00,67.8,20.0,30.02,NW,307,1.0,3.0,16,0.00,,---,0.00,VWS V14.01,2013-03-15 19:44:00,
2013-03-15 12:49:00,67.4,21.1,30.02,NNE,15,1.0,1.0,17,0.00,,---,0.00,VWS V14.01,2013-03-15 19:49:00,
2013-03-15 12:54:00,67.6,18.3,30.02,ESE,108,0.0,2.0,15,0.00,,---,0.00,VWS V14.01,2013-03-15 19:54:00,
2013-03-15 12:59:00,68.0,21.6,30.02,WNW,290,5.0,5.0,17,0.00,,---,0.00,VWS V14.01,2013-03-15 19:59:00,
2013-03-15 13:04:00,68.1,20.2,30.02,West,274,0.0,1.0,16,0.00,,---,0.00,VWS V14.01,2013-03-15 20:04:00,
2013-03-15 13:09:00,68.8,17.7,30.01,East,82,1.0,4.0,14,0.00,,---,0.00,VWS V14.01,2013-03-15 20:09:00,
2013-03-15 13:15:00,68.8,16.0,30.01,West,263,2.0,6.0,13,0.00,,---,0.00,VWS V14.01,2013-03-15 20:15:00,
2013-03-15 13:20:00,69.0,19.5,30.00,SSE,162,2.0,2.0,15,0.00,,---,0.00,VWS V14.01,2013-03-15 20:20:00,
2013-03-15 13:25:00,69.1,17.9,30.00,West,281,1.0,2.0,14,0.00,,---,0.00,VWS V14.01,2013-03-15 20:25:00,
2013-03-15 13:30:00,69.2,18.0,30.00,SW,224,2.0,2.0,14,0.00,,---,0.00,VWS V14.01,2013-03-15 20:30:00,
2013-03-15 13:35:00,69.4,18.2,29.99,North,353,0.0,1.0,14,0.00,,---,0.00,VWS V14.01,2013-03-15 20:35:00,
2013-03-15 13:40:00,69.7,16.7,29.99,West,266,2.0,7.0,13,0.00,,---,0.00,VWS V14.01,2013-03-15 20:40:00,
2013-03-15 13:45:00,69.9,18.6,29.98,SSW,200,1.0,1.0,14,0.00,,---,0.00,VWS V14.01,2013-03-15 20:45:00,
2013-03-15 13:50:00,70.0,18.6,29.98,NNW,328,3.0,3.0,14,0.00,,---,0.00,VWS V14.01,2013-03-15 20:50:00,
2013-03-15 13:55:00,70.3,17.2,29.97,West,277,1.0,4.0,13,0.00,,---,0.00,VWS V14.01,2013-03-15 20:55:00,
2013-03-15 14:00:00,70.3,17.2,29.97,ESE,110,0.0,1.0,13,0.00,,---,0.00,VWS V14.01,2013-03-15 21:00:00,
2013-03-15 14:05:00,70.2,15.2,29.96,South,180,0.0,0.0,12,0.00,,---,0.00,VWS V14.01,2013-03-15 21:05:00,
2013-03-15 14:10:00,69.9,15.0,29.96,SSW,210,0.0,2.0,12,0.00,,---,0.00,VWS V14.01,2013-03-15 21:10:00,
2013-03-15 14:16:00,70.2,15.2,29.96,ESE,123,1.0,2.0,12,0.00,,---,0.00,VWS V14.01,2013-03-15 21:16:00,
2013-03-15 14:22:00,69.6,16.6,29.96,NW,325,0.0,1.0,13,0.00,,---,0.00,VWS V14.01,2013-03-15 21:22:00,
2013-03-15 14:27:00,69.2,16.3,29.96,NE,40,1.0,1.0,13,0.00,,---,0.00,VWS V14.01,2013-03-15 21:27:00,
2013-03-15 14:32:00,69.3,14.6,29.96,WNW,299,3.0,3.0,12,0.00,,---,0.00,VWS V14.01,2013-03-15 21:32:00,
2013-03-15 14:37:00,69.3,14.6,29.95,North,11,1.0,2.0,12,0.00,,---,0.00,VWS V14.01,2013-03-15 21:37:00,
2013-03-15 14:42:00,69.6,10.6,29.95,NNW,333,1.0,3.0,10,0.00,,---,0.00,VWS V14.01,2013-03-15 21:42:00,
2013-03-15 14:47:00,69.4,10.5,29.95,SSW,211,0.0,2.0,10,0.00,,---,0.00,VWS V14.01,2013-03-15 21:47:00,
2013-03-15 14:52:00,69.4,14.6,29.95,West,279,0.0,1.0,12,0.00,,---,0.00,VWS V14.01,2013-03-15 21:52:00,
2013-03-15 14:57:00,69.3,12.6,29.95,NNE,29,1.0,1.0,11,0.00,,---,0.00,VWS V14.01,2013-03-15 21:57:00,
2013-03-15 15:02:00,68.8,12.2,29.95,SE,131,1.0,1.0,11,0.00,,---,0.00,VWS V14.01,2013-03-15 22:02:00,
2013-03-15 15:07:00,68.8,14.1,29.94,SW,222,1.0,1.0,12,0.00,,---,0.00,VWS V14.01,2013-03-15 22:07:00,
2013-03-15 15:13:00,68.5,13.9,29.95,North,355,1.0,2.0,12,0.00,,---,0.00,VWS V14.01,2013-03-15 22:13:00,
2013-03-15 15:18:00,68.5,13.9,29.94,NNW,345,1.0,2.0,12,0.00,,---,0.00,VWS V14.01,2013-03-15 22:18:00,
2013-03-15 15:23:00,68.5,11.9,29.94,NNW,343,0.0,0.0,11,0.00,,---,0.00,VWS V14.01,2013-03-15 22:23:00,
2013-03-15 15:28:00,68.7,10.0,29.94,ESE,120,1.0,4.0,10,0.00,,---,0.00,VWS V14.01,2013-03-15 22:28:00,
2013-03-15 15:33:00,68.8,10.0,29.94,NNE,18,0.0,1.0,10,0.00,,---,0.00,VWS V14.01,2013-03-15 22:33:00,
2013-03-15 15:38:00,68.8,10.0,29.94,West,277,1.0,1.0,10,0.00,,---,0.00,VWS V14.01,2013-03-15 22:38:00,
2013-03-15 15:43:00,68.7,12.1,29.94,NE,47,0.0,1.0,11,0.00,,---,0.00,VWS V14.01,2013-03-15 22:43:00,
2013-03-15 15:48:00,68.5,13.9,29.94,SSE,152,0.0,1.0,12,0.00,,---,0.00,VWS V14.01,2013-03-15 22:48:00,
2013-03-15 15:54:00,68.5,13.9,29.93,SE,142,1.0,1.0,12,0.00,,---,0.00,VWS V14.01,2013-03-15 22:54:00,
2013-03-15 15:59:00,68.6,9.9,29.93,South,183,2.0,2.0,10,0.00,,---,0.00,VWS V14.01,2013-03-15 22:59:00,
2013-03-15 16:04:00,68.5,11.9,29.93,SW,214,0.0,1.0,11,0.00,,---,0.00,VWS V14.01,2013-03-15 23:04:00,
2013-03-15 16:09:00,68.1,15.4,29.93,NNE,13,0.0,1.0,13,0.00,,---,0.00,VWS V14.01,2013-03-15 23:09:00,
2013-03-15 16:14:00,67.4,14.9,29.93,SSW,204,1.0,1.0,13,0.00,,---,0.00,VWS V14.01,2013-03-15 23:14:00,
2013-03-15 16:19:00,67.1,12.8,29.93,SSW,211,2.0,3.0,12,0.00,,---,0.00,VWS V14.01,2013-03-15 23:19:00,
2013-03-15 16:24:00,66.9,14.5,29.93,North,359,2.0,2.0,13,0.00,,---,0.00,VWS V14.01,2013-03-15 23:24:00,
2013-03-15 16:29:00,66.6,14.2,29.93,ESE,111,1.0,2.0,13,0.00,,---,0.00,VWS V14.01,2013-03-15 23:29:00,
2013-03-15 16:34:00,66.0,17.1,29.93,ENE,67,0.0,0.0,15,0.00,,---,0.00,VWS V14.01,2013-03-15 23:34:00,
2013-03-15 16:39:00,65.6,16.7,29.92,West,269,1.0,2.0,15,0.00,,---,0.00,VWS V14.01,2013-03-15 23:39:00,
2013-03-15 16:45:00,65.2,13.1,29.92,SW,218,0.0,1.0,13,0.00,,---,0.00,VWS V14.01,2013-03-15 23:45:00,
2013-03-15 16:50:00,64.7,10.9,29.92,SSE,164,0.0,1.0,12,0.00,,---,0.00,VWS V14.01,2013-03-15 23:50:00,
2013-03-15 16:55:00,64.4,12.5,29.92,SW,219,1.0,4.0,13,0.00,,---,0.00,VWS V14.01,2013-03-15 23:55:00,
2013-03-15 17:00:00,64.0,16.9,29.92,SSE,168,1.0,2.0,16,0.00,,---,0.00,VWS V14.01,2013-03-16 00:00:00,
2013-03-15 17:05:00,63.4,15.0,29.92,ENE,57,0.0,1.0,15,0.00,,---,0.00,VWS V14.01,2013-03-16 00:05:00,
2013-03-15 17:10:00,62.9,13.0,29.92,East,85,0.0,1.0,14,0.00,,---,0.00,VWS V14.01,2013-03-16 00:10:00,
2013-03-15 17:15:00,62.3,12.5,29.92,ENE,62,0.0,1.0,14,0.00,,---,0.00,VWS V14.01,2013-03-16 00:15:00,
2013-03-15 17:20:00,61.8,13.7,29.93,ESE,110,0.0,0.0,15,0.00,,---,0.00,VWS V14.01,2013-03-16 00:20:00,
2013-03-15 17:25:00,61.2,13.2,29.93,ENE,70,0.0,0.0,15,0.00,,---,0.00,VWS V14.01,2013-03-16 00:25:00,
2013-03-15 17:31:00,60.9,13.0,29.93,ESE,122,0.0,0.0,15,0.00,,---,0.00,VWS V14.01,2013-03-16 00:31:00,
2013-03-15 17:36:00,60.5,12.6,29.93,West,269,0.0,0.0,15,0.00,,---,0.00,VWS V14.01,2013-03-16 00:36:00,
2013-03-15 17:41:00,60.1,13.8,29.93,NNW,337,0.0,0.0,16,0.00,,---,0.00,VWS V14.01,2013-03-16 00:41:00,
2013-03-15 17:46:00,59.5,11.8,29.93,West,278,0.0,0.0,15,0.00,,---,0.00,VWS V14.01,2013-03-16 00:46:00,
2013-03-15 17:51:00,59.0,12.9,29.93,NNW,328,0.0,0.0,16,0.00,,---,0.00,VWS V14.01,2013-03-16 00:51:00,
2013-03-15 17:56:00,58.7,14.0,29.93,SE,139,0.0,0.0,17,0.00,,---,0.00,VWS V14.01,2013-03-16 00:56:00,
2013-03-15 18:01:00,58.4,12.4,29.93,SSW,195,0.0,0.0,16,0.00,,---,0.00,VWS V14.01,2013-03-16 01:01:00,
2013-03-15 18:06:00,58.1,14.8,29.92,SSW,195,0.0,0.0,18,0.00,,---,0.00,VWS V14.01,2013-03-16 01:06:00,
2013-03-15 18:11:00,57.6,14.4,29.92,SSE,162,0.0,0.0,18,0.00,,---,0.00,VWS V14.01,2013-03-16 01:11:00,
2013-03-15 18:16:00,57.1,14.0,29.92,SSE,162,0.0,0.0,18,0.00,,---,0.00,VWS V14.01,2013-03-16 01:16:00,
2013-03-15 18:21:00,56.6,16.0,29.92,SSW,213,0.0,1.0,20,0.00,,---,0.00,VWS V14.01,2013-03-16 01:21:00,
2013-03-15 18:27:00,55.9,16.5,29.92,SW,229,0.0,0.0,21,0.00,,---,0.00,VWS V14.01,2013-03-16 01:27:00,
2013-03-15 18:32:00,55.3,17.1,29.92,SW,229,0.0,0.0,22,0.00,,---,0.00,VWS V14.01,2013-03-16 01:32:00,
2013-03-15 18:38:00,54.7,18.6,29.92,SW,229,0.0,0.0,24,0.00,,---,0.00,VWS V14.01,2013-03-16 01:38:00,
2013-03-15 18:43:00,54.1,19.1,29.92,SSW,197,0.0,0.0,25,0.00,,---,0.00,VWS V14.01,2013-03-16 01:43:00,
2013-03-15 18:48:00,53.3,19.3,29.92,SSW,197,0.0,0.0,26,0.00,,---,0.00,VWS V14.01,2013-03-16 01:48:00,
2013-03-15 18:53:00,52.7,19.7,29.92,SSW,197,0.0,0.0,27,0.00,,---,0.00,VWS V14.01,2013-03-16 01:53:00,
2013-03-15 18:58:00,52.0,20.8,29.92,SSW,197,0.0,0.0,29,0.00,,---,0.00,VWS V14.01,2013-03-16 01:58:00,
2013-03-15 19:03:00,51.1,20.0,29.92,SSW,197,0.0,0.0,29,0.00,,---,0.00,VWS V14.01,2013-03-16 02:03:00,
2013-03-15 19:08:00,50.8,20.5,29.92,SSW,198,0.0,0.0,30,0.00,,---,0.00,VWS V14.01,2013-03-16 02:08:00,
2013-03-15 19:13:00,50.4,20.9,29.92,South,170,0.0,0.0,31,0.00,,---,0.00,VWS V14.01,2013-03-16 02:13:00,
2013-03-15 19:18:00,50.1,20.7,29.92,South,172,0.0,0.0,31,0.00,,---,0.00,VWS V14.01,2013-03-16 02:18:00,
2013-03-15 19:23:00,49.7,21.1,29.92,South,170,0.0,0.0,32,0.00,,---,0.00,VWS V14.01,2013-03-16 02:23:00,
2013-03-15 19:28:00,49.3,21.4,29.92,South,170,0.0,0.0,33,0.00,,---,0.00,VWS V14.01,2013-03-16 02:28:00,
2013-03-15 19:33:00,49.3,22.1,29.92,South,172,0.0,0.0,34,0.00,,---,0.00,VWS V14.01,2013-03-16 02:33:00,
2013-03-15 19:39:00,49.1,22.6,29.93,South,170,0.0,0.0,35,0.00,,---,0.00,VWS V14.01,2013-03-16 02:39:00,
2013-03-15 19:44:00,48.7,23.0,29.93,South,170,0.0,0.0,36,0.00,,---,0.00,VWS V14.01,2013-03-16 02:44:00,
2013-03-15 19:49:00,48.5,23.4,29.93,South,184,0.0,0.0,37,0.00,,---,0.00,VWS V14.01,2013-03-16 02:49:00,
2013-03-15 19:54:00,48.2,23.2,29.92,South,185,0.0,0.0,37,0.00,,---,0.00,VWS V14.01,2013-03-16 02:54:00,
2013-03-15 19:59:00,47.4,23.7,29.93,South,185,0.0,0.0,39,0.00,,---,0.00,VWS V14.01,2013-03-16 02:59:00,
2013-03-15 20:04:00,46.7,23.7,29.93,South,185,0.0,0.0,40,0.00,,---,0.00,VWS V14.01,2013-03-16 03:04:00,
2013-03-15 20:09:00,46.1,24.3,29.93,South,184,0.0,0.0,42,0.00,,---,0.00,VWS V14.01,2013-03-16 03:09:00,
2013-03-15 20:14:00,45.5,24.9,29.93,South,184,0.0,0.0,44,0.00,,---,0.00,VWS V14.01,2013-03-16 03:14:00,
2013-03-15 20:19:00,45.1,25.0,29.93,South,185,0.0,0.0,45,0.00,,---,0.00,VWS V14.01,2013-03-16 03:19:00,
2013-03-15 20:24:00,44.8,25.3,29.94,South,185,0.0,0.0,46,0.00,,---,0.00,VWS V14.01,2013-03-16 03:24:00,
2013-03-15 20:29:00,44.6,25.6,29.94,ESE,118,0.0,0.0,47,0.00,,---,0.00,VWS V14.01,2013-03-16 03:29:00,
2013-03-15 20:34:00,44.3,25.9,29.94,ESE,118,0.0,0.0,48,0.00,,---,0.00,VWS V14.01,2013-03-16 03:34:00,
2013-03-15 20:39:00,43.9,26.0,29.93,ESE,121,0.0,0.0,49,0.00,,---,0.00,VWS V14.01,2013-03-16 03:39:00,
2013-03-15 20:44:00,43.5,25.6,29.93,ESE,121,0.0,0.0,49,0.00,,---,0.00,VWS V14.01,2013-03-16 03:44:00,
2013-03-15 20:49:00,43.1,25.7,29.93,ESE,121,0.0,0.0,50,0.00,,---,0.00,VWS V14.01,2013-03-16 03:49:00,
2013-03-15 20:54:00,42.9,26.0,29.94,ESE,121,0.0,0.0,51,0.00,,---,0.00,VWS V14.01,2013-03-16 03:54:00,
2013-03-15 20:59:00,42.9,25.6,29.93,ESE,121,0.0,0.0,50,0.00,,---,0.00,VWS V14.01,2013-03-16 03:59:00,
2013-03-15 21:00:00,42.9,25.6,29.93,ESE,121,0.0,0.0,50,0.00,,---,0.00,VWS V14.01,2013-03-16 04:00:00,
2013-03-15 21:01:00,42.9,25.6,29.93,ESE,121,0.0,0.0,50,0.00,,---,0.00,VWS V14.01,2013-03-16 04:01:00,
2013-03-15 21:04:00,42.9,25.6,29.93,ESE,121,0.0,0.0,50,0.00,,---,0.00,VWS V14.01,2013-03-16 04:04:00,
2013-03-15 21:05:00,42.8,25.9,29.93,ESE,121,0.0,0.0,51,0.00,,---,0.00,VWS V14.01,2013-03-16 04:05:00,
2013-03-15 21:10:00,42.9,26.0,29.94,SE,125,0.0,0.0,51,0.00,,---,0.00,VWS V14.01,2013-03-16 04:10:00,
2013-03-15 21:15:00,42.9,26.5,29.94,SE,125,0.0,0.0,52,0.00,,---,0.00,VWS V14.01,2013-03-16 04:15:00,
2013-03-15 21:20:00,42.9,27.0,29.93,SE,125,0.0,0.0,53,0.00,,---,0.00,VWS V14.01,2013-03-16 04:20:00,
2013-03-15 21:25:00,43.2,27.7,29.94,SSE,162,0.0,0.0,54,0.00,,---,0.00,VWS V14.01,2013-03-16 04:25:00,
2013-03-15 21:30:00,43.5,28.4,29.94,SW,215,0.0,1.0,55,0.00,,---,0.00,VWS V14.01,2013-03-16 04:30:00,
2013-03-15 21:35:00,43.5,28.0,29.94,SW,214,0.0,0.0,54,0.00,,---,0.00,VWS V14.01,2013-03-16 04:35:00,
2013-03-15 21:40:00,43.0,28.0,29.94,SW,214,0.0,0.0,55,0.00,,---,0.00,VWS V14.01,2013-03-16 04:40:00,
2013-03-15 21:45:00,42.6,28.5,29.94,SW,215,0.0,0.0,57,0.00,,---,0.00,VWS V14.01,2013-03-16 04:45:00,
2013-03-15 21:50:00,42.4,28.7,29.94,SW,215,0.0,0.0,58,0.00,,---,0.00,VWS V14.01,2013-03-16 04:50:00,
2013-03-15 21:55:00,42.2,28.9,29.94,SE,137,0.0,0.0,59,0.00,,---,0.00,VWS V14.01,2013-03-16 04:55:00,
2013-03-15 22:01:00,42.5,29.6,29.93,SSW,197,0.0,0.0,60,0.00,,---,0.00,VWS V14.01,2013-03-16 05:01:00,
2013-03-15 22:06:00,42.9,29.6,29.93,SSE,156,0.0,0.0,59,0.00,,---,0.00,VWS V14.01,2013-03-16 05:06:00,
2013-03-15 22:11:00,43.3,30.0,29.93,South,183,0.0,0.0,59,0.00,,---,0.00,VWS V14.01,2013-03-16 05:11:00,
2013-03-15 22:16:00,43.4,29.6,29.93,SE,128,0.0,0.0,58,0.00,,---,0.00,VWS V14.01,2013-03-16 05:16:00,
2013-03-15 22:22:00,43.6,29.4,29.93,SSE,147,0.0,0.0,57,0.00,,---,0.00,VWS V14.01,2013-03-16 05:22:00,
2013-03-15 22:27:00,43.8,29.6,29.93,ESE,120,0.0,0.0,57,0.00,,---,0.00,VWS V14.01,2013-03-16 05:27:00,
2013-03-15 22:32:00,44.1,30.3,29.93,SSW,211,0.0,2.0,58,0.00,,---,0.00,VWS V14.01,2013-03-16 05:32:00,
2013-03-15 22:37:00,44.6,30.8,29.93,SSW,197,0.0,0.0,58,0.00,,---,0.00,VWS V14.01,2013-03-16 05:37:00,
2013-03-15 22:42:00,44.5,30.2,29.93,SSW,197,0.0,0.0,57,0.00,,---,0.00,VWS V14.01,2013-03-16 05:42:00,
2013-03-15 22:47:00,44.1,29.9,29.93,SSW,197,0.0,0.0,57,0.00,,---,0.00,VWS V14.01,2013-03-16 05:47:00,
2013-03-15 22:53:00,43.8,29.6,29.93,SSW,196,0.0,0.0,57,0.00,,---,0.00,VWS V14.01,2013-03-16 05:53:00,
2013-03-15 22:58:00,43.5,29.3,29.93,ESE,105,0.0,0.0,57,0.00,,---,0.00,VWS V14.01,2013-03-16 05:58:00,
2013-03-15 23:03:00,43.3,29.1,29.93,SSE,160,0.0,0.0,57,0.00,,---,0.00,VWS V14.01,2013-03-16 06:03:00,
2013-03-15 23:08:00,43.0,29.2,29.93,SSE,160,0.0,0.0,58,0.00,,---,0.00,VWS V14.01,2013-03-16 06:08:00,
2013-03-15 23:13:00,42.8,29.5,29.93,SSE,160,0.0,0.0,59,0.00,,---,0.00,VWS V14.01,2013-03-16 06:13:00,
2013-03-15 23:18:00,42.6,29.7,29.93,SSE,165,0.0,0.0,60,0.00,,---,0.00,VWS V14.01,2013-03-16 06:18:00,
2013-03-15 23:23:00,42.6,29.7,29.92,SSE,165,0.0,0.0,60,0.00,,---,0.00,VWS V14.01,2013-03-16 06:23:00,
2013-03-15 23:29:00,42.5,29.2,29.93,SSE,165,0.0,0.0,59,0.00,,---,0.00,VWS V14.01,2013-03-16 06:29:00,
2013-03-15 23:34:00,42.5,29.2,29.92,SSW,200,0.0,0.0,59,0.00,,---,0.00,VWS V14.01,2013-03-16 06:34:00,
2013-03-15 23:39:00,42.6,29.7,29.92,SSW,197,0.0,0.0,60,0.00,,---,0.00,VWS V14.01,2013-03-16 06:39:00,
2013-03-15 23:44:00,42.8,29.5,29.92,SSE,167,0.0,0.0,59,0.00,,---,0.00,VWS V14.01,2013-03-16 06:44:00,
2013-03-15 23:49:00,42.8,29.5,29.92,SE,141,0.0,0.0,59,0.00,,---,0.00,VWS V14.01,2013-03-16 06:49:00,
2013-03-15 23:54:00,42.8,29.5,29.92,South,173,0.0,1.0,59,0.00,,---,0.00,VWS V14.01,2013-03-16 06:54:00,
2013-03-15 23:59:00,42.6,29.3,29.92,South,173,0.0,0.0,59,0.00,,---,0.00,VWS V14.01,2013-03-16 06:59:00,